Weather History for New Orleans, LA

Change the Weather History Date:

Sunday, February 17, 2013

  Actual Average Record
Temperature  
Mean Temperature 48 °F -  
Max Temperature 60 °F 64 °F 79 °F (1967)
Min Temperature 37 °F 48 °F 28 °F (1980)
Degree Days  
Heating Degree Days 16    
Moisture  
Dew Point 31 °F    
Average Humidity 52    
Maximum Humidity 70    
Minimum Humidity 24    
Precipitation  
Precipitation 0.00 in - - ()
Sea Level Pressure  
Sea Level Pressure 30.31 in    
Wind  
Wind Speed 4 mph (SE)    
Max Wind Speed 10 mph    
Max Gust Speed -    
Visibility 10 miles    
Events      
Averages and records for this station are not official NWS values.
T = Trace of Precipitation, MM = Missing Value Source: NWS Daily Summary

Daily Weather History Graph

Daily Weather History Graph

Search for Another Location

Airport:

Trip Planner

Search our weather history database for the weather conditions in past years. The results will help you decide how hot, cold, wet, or windy it might be!

Date:

Astronomy

Feb. 17, 2013 Rise Set
Actual Time 6:38 AM CST 5:51 PM CST
Civil Twilight 6:14 AM CST 6:15 PM CST
Nautical Twilight 5:46 AM CST 6:43 PM CST
Astronomical Twilight 5:18 AM CST 7:11 PM CST
Moon 11:06 AM CST (2/17) 12:14 AM CST (2/17)
Length of Visible Light 12h 01m
Length of Day
11h 12m
Waxing Crescent, 49% of the Moon is Illuminated
Feb 17
Waxing Crescent
Feb 17
First Quarter
Feb 25
Full
Mar 4
Last Quarter
Mar 11
New

Hourly Weather History & Observations

Time (CST) Temp. Windchill Dew Point Humidity Pressure Visibility Wind Dir Wind Speed Gust Speed Precip Events Conditions
12:53 AM 41.0 °F - 28.0 °F 60% 30.31 in 10.0 mi Calm Calm - N/A   Clear
1:53 AM 39.0 °F - 28.0 °F 65% 30.31 in 10.0 mi Calm Calm - N/A   Clear
2:53 AM 37.0 °F - 28.0 °F 70% 30.31 in 10.0 mi Calm Calm - N/A   Clear
3:53 AM 39.9 °F 35.8 °F 25.0 °F 55% 30.32 in 10.0 mi East 5.8 mph - N/A   Clear
4:53 AM 39.0 °F 34.0 °F 25.0 °F 57% 30.32 in 10.0 mi East 6.9 mph - N/A   Clear
5:53 AM 37.9 °F 34.4 °F 26.1 °F 62% 30.33 in 10.0 mi East 4.6 mph - N/A   Clear
6:53 AM 37.9 °F - 27.0 °F 65% 30.34 in 10.0 mi Calm Calm - N/A   Clear
7:53 AM 43.0 °F 41.3 °F 32.0 °F 65% 30.36 in 10.0 mi ESE 3.5 mph - N/A   Clear
8:53 AM 48.9 °F - 30.0 °F 48% 30.38 in 10.0 mi ESE 6.9 mph - N/A   Clear
9:53 AM 51.1 °F - 28.9 °F 43% 30.38 in 10.0 mi SE 8.1 mph - N/A   Clear
10:53 AM 55.4 °F - 28.4 °F 36% 30.38 in 10.0 mi SE 5.8 mph - N/A   Partly Cloudy
11:53 AM 55.4 °F - 28.4 °F 36% 30.36 in 10.0 mi South 8.1 mph - N/A   Partly Cloudy
12:53 PM 57.9 °F - 30.0 °F 35% 30.32 in 10.0 mi Variable 6.9 mph - N/A   Clear
1:53 PM 60.1 °F - 32.0 °F 35% 30.30 in 10.0 mi South 9.2 mph - N/A   Clear
2:53 PM 59.0 °F - 32.0 °F 36% 30.28 in 10.0 mi South 5.8 mph - N/A   Clear
3:53 PM 59.0 °F - 34.0 °F 39% 30.27 in 10.0 mi South 10.4 mph - N/A   Clear
4:53 PM 57.0 °F - 35.1 °F 44% 30.26 in 10.0 mi South 9.2 mph - N/A   Clear
5:53 PM 53.1 °F - 35.1 °F 50% 30.27 in 10.0 mi South 10.4 mph - N/A   Clear
6:53 PM 50.0 °F - 37.0 °F 61% 30.27 in 10.0 mi SSE 8.1 mph - N/A   Clear
7:53 PM 48.9 °F - 37.9 °F 66% 30.28 in 10.0 mi SSE 8.1 mph - N/A   Clear
8:53 PM 48.0 °F - 37.9 °F 68% 30.28 in 10.0 mi SSE 6.9 mph - N/A   Clear
9:53 PM 48.0 °F - 37.0 °F 66% 30.28 in 10.0 mi SE 5.8 mph - N/A   Clear
11:53 PM 46.9 °F - 37.0 °F 68% 30.26 in 10.0 mi SE 5.8 mph - N/A   Clear